User: anonymous   Login
Location: Rio de Janeiro
(22.9068°S, 43.1729°W)
Time: 12:54:06
(UTC-03:00)
Language:

Envisat - Orbit

View from above orbital plane
View from above orbital plane
View from above satellite
View from above satellite

Ground track
Ground track

The orbit data is extracted from the following two-line orbital elements,

1 27386U 02009A   24063.51927240  .00000227  00000-0  87860-4 0  9996
2 27386  98.2695  28.3587 0001363  89.8685  21.2633 14.38512191153389
Epoch (UTC): 03 March 2024 12:27:45
Eccentricity: 0.0001363
inclination: 98.2695°
perigee height: 762 km
apogee height: 764 km
right ascension of ascending node: 28.3587°
argument of perigee: 89.8685°
revolutions per day: 14.38512191
mean anomaly at epoch: 21.2633°
orbit number at epoch: 15338

The dashed part of the orbit path shows where the satellite is in the earth's shadow,  

DLR